Regional Weather Roundup
Issued by NWS

Home | Current Version | Previous Version | Text Only | Print | Product List | Glossary On
Versions: 1 2 3 4 5 6 7 8 9 10 11 12 13 14 15 16 17 18 19 20 21 22 23 24 25 26 27 28 29 30 31 32 33 34 35 36 37 38 39 40 41 42 43 44 45 46 47 48 49 50
919
ASUS43 KLSX 172057
RWRMO

WEATHER SUMMARY FOR MISSOURI
NATIONAL WEATHER SERVICE SPRINGFIELD MO
300 PM CST SUN DEC 17 2017

NOTE: "FAIR" INDICATES FEW OR NO CLOUDS BELOW 12,000 FEET WITH NO
       SIGNIFICANT WEATHER AND/OR OBSTRUCTIONS TO VISIBILITY.
       CURRENT SKY AND/OR WEATHER CONDITIONS ARE NOT AVAILABLE FOR
       CHILLICOTHE AND FARMINGTON.

MOZ001>031-035>038-043-044-053-054-172200-
...NORTHERN AND WESTERN MISSOURI...

CITY           SKY/WX    TMP DP  RH WIND       PRES   REMARKS
KANSAS CTY INT CLOUDY    47  44  90 SW6       29.98R
ST JOSEPH      CLOUDY    47  44  90 NW6       29.98R
CHILLICOTHE      N/A     46  44  93 S5        29.98S

$$
MOZ066>068-077>081-088>096-101>105-172200-
...SOUTHWEST MISSOURI...

CITY           SKY/WX    TMP DP  RH WIND       PRES   REMARKS
SPRINGFIELD    CLOUDY    46  45  96 W6        30.01S FOG
JOPLIN         CLOUDY    46  44  93 W7        30.03S
BRANSON        FOG       45  45 100 CALM      30.03F VSB 3/4

$$
MOZ032>034-039>042-045>050-055>058-069>072-172200-
...CENTRAL MISSOURI...

CITY           SKY/WX    TMP DP  RH WIND       PRES   REMARKS
COLUMBIA       NOT AVBL
JEFFERSON CITY CLOUDY    47  42  83 SW7       30.02R
ROLLA          CLOUDY    46  42  86 SW8       30.01R
SEDALIA        CLOUDY    46  46 100 SW8       30.02R
WARRENSBURG    CLOUDY    45  43  93 S8        30.00R
OSAGE BEACH    CLOUDY    46  45  93 SW6       30.03R FOG

$$
MOZ051-052-059>065-172200-
...EAST CENTRAL MISSOURI...

CITY           SKY/WX    TMP DP  RH WIND       PRES   REMARKS
ST LOUIS INTL  PTSUNNY   55  40  56 S8        29.99F

$$
MOZ072>076-082>087-097>100-106>115-172200-
...SOUTH CENTRAL AND SOUTHEAST MISSOURI...

CITY           SKY/WX    TMP DP  RH WIND       PRES   REMARKS
CAPE GIRARDEAU CLOUDY    46  42  86 S8        30.06F
POPLAR BLUFF   CLOUDY    47  43  86 S8        30.07R
WEST PLAINS    CLOUDY    46  44  93 S5        30.04S

$$



USA.gov is the U.S. government's official web portal to all federal, state and local government web resources and services.